Погода в Ермаковском

Россия / Красноярский край     53°16′32″N   92°23′28″E
темп.,
°C
ветер,
м/с
пор.,
м/с
влажн.,
%
обл.,
%
осадки,
мм/ч
давл.,
гПа
погр.,
м
27 февраля, сб
сб2701:00−21юз1489100 0.0 1039175
04:00−22ююз1292100 0.0 104038
07:00−21ююз1291100 0.0 104134
10:00−18юз1384100 0.0 1040318
13:00−14всв1184100 0.1 1038495
16:00−14зсз2480100 0.1 1036780
19:00−17зюз1286100 0.1 103821
22:00−17ю2391100 0.0 103965
28 февраля, вс
вс2801:00−18ю1291100 0.1 104023
04:00−19ююв1191100 0.0 104020
07:00−20вюв1194100 0.0 104120
10:00−16всв1289100 0.0 1040138
13:00−12всв228372 0.0 1038355
16:00−10св118183 0.0 1036387
19:00−16в129089 0.0 103620
22:00−15в2290100 0.0 103640
1 марта, пн
пн101:00−16юв1286100 0.0 103424
04:00−16вюв1185100 0.0 103220
07:00−15вюв1286100 0.0 102929
10:00−11вюв2480100 0.0 1026244
13:00−7юв2471100 0.0 1022530
16:00−5ююв2580100 0.1 1019436
19:00−7ююв2390100 0.1 101898
22:00−8ююв2595100 0.7 1017229
2 марта, вт
вт201:00−8ю2696100 2.2 1015220
04:00−7ююв2596100 1.7 1014165
07:00−6ююз1291100 2.4 101438
10:00−1з51382100 0.1 10141447
13:000з71474100 0.1 10141600
16:000з71574100 0.1 10141611
19:00−2зюз51479100 0.1 1016795
22:00−4зюз2785100 0.0 1017174
3 марта, ср
ср301:00−6юв0089100 0.0 101521
04:00−5всв1197100 0.8 101432
07:00−5ссв1197100 2.5 101355
10:00−4зсз1196100 2.0 1012184
13:00−3сз2395100 3.4 1012331
16:00−3зсз1296100 1.8 1011239
19:00−4з1298100 2.6 101471
22:00−7з31594100 0.2 1016710